{"data":{"norad_id":54762,"epoch":"2026-05-25T04:02:08.556576Z","epoch_age_seconds":64499,"freshness":"FRESH","line1":"1 54762U 22175E   26145.16815459 -.00000695  00000+0 -25558-4 0  9998","line2":"2 54762  53.2140  60.8673 0001229 108.6936 251.4189 15.08843500191463","mean_motion":15.088435,"eccentricity":0.0001229,"inclination_deg":53.214,"raan_deg":60.8673,"arg_perigee_deg":108.6936,"mean_anomaly_deg":251.4189,"bstar":-2.5558e-5,"rev_number":19146,"period_min":95.437333295335,"perigee_km":538.88248469997,"apogee_km":540.58289706999,"semimajor_km":6917.869690885,"source":"CELESTRAK","updated_at":"2026-05-25T13:38:17.688697Z"}}